DW0275 Weather Reports


Display with metric or nautical units.
time (UTC)temp
F
wind
direction
speed
MPH
gust
MPH
rain 1hr
in
rain 24hr
in
rain mn
in
humidity
%
barometer
mb
20260906050027 76 345 0.0 3.0 0.00 0.01 0.00 90 1014.6
20260906045839 77 6 1.0 3.0 0.00 0.01 0.00 90 1014.7
20260906045334 77 349 1.0 4.0 0.00 0.01 0.00 90 1014.8
20260906044831 77 5 0.0 2.0 0.00 0.01 0.00 90 1014.8
20260906044554 76 153 0.0 1.0 0.00 0.01 0.00 90 1014.7
20260906044329 77 153 0.0 1.0 0.00 0.01 0.00 90 1014.7
20260906043827 77 153 0.0 0.0 0.00 0.01 0.00 90 1014.7
20260906043322 77 154 0.0 0.0 0.00 0.01 0.00 90 1014.6
20260906043032 76 153 0.0 0.0 0.00 0.01 0.00 90 1014.5
20260906042837 77 153 0.0 0.0 0.00 0.01 0.00 90 1014.5
20260906042353 77 153 0.0 0.0 0.00 0.01 0.00 90 1014.3
20260906041831 77 153 0.0 0.0 0.00 0.01 0.00 90 1014.5
20260906041551 76 153 0.0 0.0 0.00 0.01 0.00 90 1014.4
20260906041346 77 153 0.0 0.0 0.00 0.01 0.00 90 1014.6
20260906040822 77 154 0.0 0.0 0.00 0.01 0.00 90 1014.6
20260906040339 77 154 0.0 0.0 0.00 0.01 0.00 90 1014.6
20260906040023 76 154 0.0 0.0 0.00 0.01 0.01 90 1014.5
20260906035849 77 154 0.0 0.0 0.00 0.01 0.01 90 1014.6
20260906035346 77 164 0.0 0.0 0.00 0.01 0.01 90 1014.6
20260906034821 77 164 0.0 0.0 0.00 0.01 0.01 90 1014.5
20260906034508 76 164 0.0 0.0 0.00 0.01 0.01 89 1014.3
20260906034318 77 164 0.0 0.0 0.00 0.01 0.01 89 1014.3
20260906033834 77 164 0.0 1.0 0.00 0.01 0.01 90 1014.3
20260906033330 77 164 0.0 1.0 0.00 0.01 0.01 90 1014.2
20260906033050 77 164 0.0 1.0 0.00 0.01 0.01 90 1014.0
20260906032828 77 164 0.0 1.0 0.00 0.01 0.01 90 1014.1
20260906032326 77 160 0.0 1.0 0.00 0.01 0.01 90 1014.1
20260906031824 77 162 0.0 2.0 0.00 0.01 0.01 90 1014.1
20260906031541 77 181 0.0 2.0 0.00 0.01 0.01 90 1014.1
20260906031323 77 153 0.0 2.0 0.00 0.01 0.01 90 1014.1
20260906030821 77 150 0.0 2.0 0.00 0.01 0.01 90 1014.1
20260906030318 77 150 0.0 2.0 0.00 0.01 0.01 90 1014.3
20260906030020 77 150 0.0 3.0 0.00 0.01 0.01 90 1014.3
20260906025816 77 150 0.0 3.0 0.00 0.01 0.01 90 1014.5
20260906025314 77 150 1.0 3.0 0.00 0.01 0.01 90 1014.6
20260906024828 77 106 0.0 0.0 0.00 0.01 0.01 89 1014.6
20260906024526 77 107 0.0 0.0 0.00 0.01 0.01 89 1014.7
20260906024324 77 107 0.0 0.0 0.00 0.01 0.01 89 1014.9
20260906023820 77 356 0.0 0.0 0.00 0.01 0.01 89 1015.1
20260906023317 77 356 0.0 0.0 0.00 0.01 0.01 88 1015.2
20260906023052 77 356 0.0 0.0 0.00 0.01 0.01 88 1015.2
20260906022834 77 356 0.0 0.0 0.00 0.01 0.01 88 1015.4
20260906022351 77 356 0.0 0.0 0.00 0.01 0.01 88 1015.4
20260906021828 77 356 0.0 1.0 0.00 0.01 0.01 88 1015.5
20260906021517 77 356 0.0 1.0 0.00 0.01 0.01 88 1015.4
20260906021347 77 356 0.0 1.0 0.00 0.01 0.01 87 1015.5
20260906020823 77 359 0.0 3.0 0.00 0.01 0.01 88 1015.6
20260906020319 77 16 0.0 4.0 0.00 0.01 0.01 87 1015.7
20260906020041 77 356 0.0 4.0 0.00 0.01 0.01 87 1015.6
20260906015817 77 347 0.0 4.0 0.00 0.01 0.01 87 1015.7
20260906015334 77 353 1.0 3.0 0.00 0.01 0.01 87 1015.8
20260906014831 77 354 0.0 1.0 0.00 0.01 0.01 88 1015.8
20260906014538 76 354 0.0 2.0 0.00 0.01 0.01 88 1015.6
20260906014328 77 354 0.0 2.0 0.00 0.01 0.01 88 1015.9
20260906013826 77 299 0.0 1.0 0.00 0.01 0.01 88 1015.8
20260906013324 77 303 0.0 4.0 0.00 0.01 0.01 88 1015.7
20260906013049 76 295 0.0 4.0 0.00 0.01 0.01 88 1015.6
20260906012842 77 46 1.0 4.0 0.00 0.01 0.01 88 1015.5
20260906012319 77 5 0.0 3.0 0.00 0.01 0.01 88 1015.6
20260906011816 77 303 1.0 4.0 0.00 0.01 0.01 89 1015.7
20260906011505 76 21 0.0 4.0 0.00 0.01 0.01 89 1015.5
20260906011327 77 21 1.0 4.0 0.00 0.01 0.01 89 1015.5
20260906010826 77 12 0.0 1.0 0.00 0.01 0.01 89 1015.3
20260906010323 77 5 0.0 3.0 0.00 0.01 0.01 90 1015.2
20260906010058 76 5 0.0 3.0 0.00 0.01 0.01 90 1014.9
20260906010002 76 5 0.0 3.0 0.00 0.01 0.01 90 1015.0
20260906005840 77 5 0.0 3.0 0.00 0.01 0.01 90 1015.0
20260906005316 77 360 1.0 4.0 0.00 0.01 0.01 90 1015.0
20260906004834 77 359 2.0 4.0 0.00 0.01 0.01 91 1014.9
20260906004528 76 352 0.0 3.0 0.00 0.01 0.01 91 1014.7
20260906004333 77 352 0.0 3.0 0.00 0.01 0.01 91 1014.8
20260906003828 77 354 1.0 3.0 0.00 0.01 0.01 91 1014.8
20260906003325 77 348 1.0 3.0 0.00 0.01 0.01 91 1014.8
20260906003110 76 341 0.0 3.0 0.00 0.01 0.01 91 1014.7
20260906002824 77 2 1.0 3.0 0.00 0.01 0.01 91 1014.7
20260906002321 77 262 0.0 0.0 0.00 0.01 0.01 91 1014.5
20260906001818 77 262 0.0 0.0 0.00 0.01 0.01 91 1014.5
20260906001545 76 262 0.0 1.0 0.00 0.01 0.01 91 1014.4
20260906001338 77 262 0.0 1.0 0.00 0.01 0.01 91 1014.6
20260906000856 77 201 0.0 0.0 0.00 0.01 0.01 91 1014.6
20260906000348 77 200 0.0 0.0 0.00 0.01 0.01 91 1014.5
20260906000046 76 148 0.0 0.0 0.00 0.01 0.01 91 1014.2
20260905235823 77 148 0.0 1.0 0.00 0.01 0.01 91 1014.3
20260905235321 77 148 0.0 1.0 0.00 0.01 0.01 91 1014.4
20260905234819 77 136 0.0 1.0 0.00 0.01 0.01 91 1014.6
20260905234537 76 354 0.0 0.0 0.00 0.01 0.01 91 1014.4
20260905234317 77 354 0.0 0.0 0.00 0.01 0.01 91 1014.3
20260905233833 77 354 0.0 0.0 0.00 0.01 0.01 91 1014.4
20260905233328 77 354 0.0 0.0 0.00 0.01 0.01 91 1014.4
20260905233017 77 11 0.0 0.0 0.00 0.01 0.01 91 1014.4
20260905232826 77 27 0.0 0.0 0.00 0.01 0.01 91 1014.5
20260905232323 77 27 0.0 0.0 0.00 0.01 0.01 91 1014.4
20260905231821 77 27 0.0 0.0 0.00 0.01 0.01 91 1014.2
20260905231509 76 27 0.0 0.0 0.00 0.01 0.01 91 1014.1
20260905231319 77 27 0.0 0.0 0.00 0.01 0.01 91 1014.2
20260905230816 77 27 0.0 0.0 0.00 0.01 0.01 91 1014.2
20260905230334 77 27 0.0 0.0 0.00 0.01 0.01 90 1014.3
20260905230055 76 27 0.0 0.0 0.00 0.01 0.01 90 1014.3
20260905225831 77 27 0.0 0.0 0.00 0.03 0.01 90 1014.5
20260905225328 77 27 0.0 0.0 0.00 0.03 0.01 90 1014.6
20260905224825 77 27 0.0 1.0 0.00 0.03 0.01 90 1014.7
20260905224539 77 123 0.0 1.0 0.00 0.03 0.01 90 1014.7
20260905224342 77 117 0.0 1.0 0.00 0.03 0.01 90 1014.6
20260905223818 77 41 0.0 4.0 0.00 0.03 0.01 90 1014.5
20260905223336 78 147 0.0 4.0 0.00 0.03 0.01 89 1014.5
20260905223055 77 141 0.0 3.0 0.00 0.03 0.01 89 1014.5
20260905222855 78 169 0.0 3.0 0.00 0.03 0.01 89 1014.6
20260905222350 78 297 1.0 4.0 0.00 0.03 0.01 89 1014.6
20260905221827 79 209 1.0 4.0 0.00 0.03 0.01 89 1014.7
20260905221611 78 115 1.0 4.0 0.00 0.03 0.01 89 1014.6
20260905221325 79 300 1.0 4.0 0.00 0.03 0.01 89 1014.7
20260905220844 80 352 2.0 4.0 0.00 0.03 0.01 90 1015.0
20260905220319 81 302 0.0 0.0 0.00 0.03 0.01 90 1014.7
20260905220025 80 335 0.0 0.0 0.00 0.51 0.01 90 1014.5
20260905215816 81 117 0.0 0.0 0.00 0.51 0.01 90 1014.5
20260905215332 81 117 0.0 0.0 0.00 0.51 0.01 90 1014.5
20260905214827 81 117 0.0 0.0 0.00 0.51 0.01 89 1014.4
20260905214515 80 147 0.0 0.0 0.00 0.51 0.01 89 1014.2
20260905214325 81 289 0.0 0.0 0.00 0.51 0.01 89 1014.3
20260905213824 81 290 0.0 0.0 0.00 0.51 0.01 89 1014.2
20260905213321 81 290 0.0 0.0 0.00 0.51 0.01 88 1014.0
20260905213011 81 290 0.0 5.0 0.00 0.51 0.01 87 1013.6
20260905212838 82 290 0.0 5.0 0.00 0.51 0.01 87 1013.8
20260905212333 82 294 0.0 5.0 0.00 0.51 0.01 86 1013.7
20260905211850 83 274 1.0 4.0 0.00 0.51 0.01 85 1013.7
20260905211509 83 60 0.0 5.0 0.00 0.51 0.01 85 1013.7
20260905211345 83 20 1.0 5.0 0.00 0.51 0.01 84 1014.0
20260905210821 84 290 1.0 5.0 0.00 0.51 0.01 84 1013.9
20260905210318 84 192 0.0 1.0 0.00 0.51 0.01 84 1013.9
20260905210039 83 147 0.0 1.0 0.00 0.51 0.01 84 1013.7
20260905205815 84 147 0.0 1.0 0.00 1.45 0.01 83 1013.6
20260905205329 84 142 0.0 2.0 0.00 1.45 0.01 83 1013.7
20260905204825 84 130 0.0 5.0 0.00 1.45 0.01 83 1013.6
20260905204526 84 122 1.0 11.0 0.00 1.45 0.01 83 1013.5
20260905204321 84 137 2.0 11.0 0.00 1.45 0.01 83 1013.7
20260905203838 84 155 4.0 11.0 0.00 1.45 0.01 83 1013.2
20260905203355 85 131 3.0 8.0 0.00 1.45 0.01 83 1012.9
20260905203043 85 122 3.0 7.0 0.00 1.45 0.01 83 1012.7
20260905202852 85 114 3.0 11.0 0.00 1.45 0.01 83 1012.8
20260905202329 86 136 4.0 14.0 0.00 1.45 0.01 82 1013.0
20260905201826 87 143 9.0 14.0 0.00 1.45 0.01 81 1013.0
20260905201506 87 102 7.0 13.0 0.00 1.45 0.01 81 1013.0
20260905201323 88 182 8.0 13.0 0.00 1.45 0.01 81 1013.1
20260905200839 88 129 6.0 13.0 0.00 1.45 0.01 81 1013.3
20260905200355 89 159 7.0 13.0 0.00 1.45 0.01 81 1013.6
20260905200025 89 128 6.0 13.0 0.00 2.41 0.01 81 1013.5
20260905195832 89 113 5.0 13.0 0.00 2.41 0.01 81 1013.5
20260905195330 89 130 7.0 11.0 0.00 2.41 0.01 81 1013.5
20260905194828 89 122 8.0 11.0 0.00 2.41 0.01 81 1013.7
20260905194508 88 146 6.0 11.0 0.00 2.41 0.01 81 1013.7
20260905194346 88 151 5.0 12.0 0.00 2.41 0.01 81 1013.9
20260905193823 88 119 6.0 12.0 0.00 2.41 0.01 81 1013.9
20260905193341 88 127 6.0 9.0 0.00 2.41 0.01 81 1013.8
20260905193005 88 56 3.0 9.0 0.00 2.41 0.01 82 1013.7
20260905192837 88 131 4.0 9.0 0.00 2.41 0.01 82 1013.8
20260905192353 87 138 5.0 8.0 0.00 2.41 0.01 82 1013.7
20260905191829 87 103 2.0 6.0 0.00 2.41 0.01 83 1013.8
20260905191529 86 122 3.0 6.0 0.00 2.41 0.01 82 1013.7
20260905191327 87 95 1.0 6.0 0.00 2.41 0.01 83 1013.8
20260905190844 86 136 3.0 6.0 0.00 2.41 0.01 83 1013.8
20260905190319 85 143 2.0 6.0 0.00 2.41 0.01 84 1013.8
20260905190055 85 119 2.0 6.0 0.00 2.41 0.01 84 1013.6
20260905185838 85 131 3.0 4.0 0.00 2.41 0.01 84 1013.9
20260905185315 84 137 2.0 5.0 0.00 2.41 0.01 85 1014.1
20260905184832 84 62 1.0 5.0 0.00 2.41 0.01 85 1013.9
20260905184517 84 36 2.0 5.0 0.00 2.41 0.01 85 1013.9
20260905184343 84 61 1.0 5.0 0.00 2.41 0.01 85 1014.0
20260905183820 84 136 1.0 4.0 0.00 2.41 0.01 85 1014.1
20260905183317 83 85 2.0 4.0 0.00 2.41 0.01 85 1014.2
20260905183041 83 139 2.0 5.0 0.00 2.41 0.01 85 1014.0
20260905182816 83 66 2.0 5.0 0.00 2.41 0.01 85 1014.1
20260905182332 83 85 3.0 6.0 0.00 2.41 0.01 85 1014.1
20260905181830 83 63 3.0 6.0 0.00 2.41 0.01 85 1014.3
20260905181522 83 109 2.0 6.0 0.00 2.41 0.01 86 1014.3
20260905181326 83 108 2.0 5.0 0.00 2.41 0.01 87 1014.4
20260905180844 83 49 3.0 5.0 0.00 2.41 0.01 87 1014.7
20260905180321 83 54 2.0 8.0 0.00 2.41 0.01 88 1014.6
20260905180045 82 41 3.0 8.0 0.00 2.41 0.01 88 1014.5
20260905175818 83 37 3.0 8.0 0.00 2.41 0.01 88 1014.6
20260905175316 83 47 3.0 5.0 0.00 2.41 0.01 87 1014.6
20260905174834 83 54 2.0 8.0 0.00 2.41 0.01 87 1014.6
20260905174532 83 55 4.0 8.0 0.00 2.41 0.01 86 1014.6
20260905174331 84 44 5.0 8.0 0.00 2.41 0.01 86 1014.7
20260905173848 84 47 2.0 3.0 0.00 2.41 0.01 86 1014.7
20260905173326 84 347 0.0 5.0 0.00 2.41 0.01 87 1014.5
20260905173027 83 347 1.0 7.0 0.00 2.41 0.01 86 1014.4
20260905172823 83 36 2.0 7.0 0.00 2.41 0.01 86 1014.8
20260905172322 84 29 4.0 7.0 0.00 2.41 0.01 86 1015.0
20260905171819 85 45 0.0 1.0 0.00 2.41 0.01 86 1014.9
20260905171518 84 340 0.0 1.0 0.00 2.41 0.01 85 1014.8
20260905171317 84 31 0.0 1.0 0.00 2.41 0.01 85 1014.8
20260905170835 84 356 0.0 0.0 0.00 2.41 0.01 85 1015.0
20260905170332 84 309 0.0 2.0 0.00 2.41 0.01 85 1015.0
20260905170059 84 3 0.0 5.0 0.00 2.41 0.01 85 1014.9
20260905170002 84 3 0.0 5.0 0.00 2.41 0.01 84 1014.8
20260905165830 84 13 0.0 5.0 0.00 2.41 0.01 84 1014.9
20260905165328 84 12 2.0 5.0 0.00 2.41 0.01 83 1015.0
20260905164827 86 359 1.0 4.0 0.00 2.41 0.01 83 1015.2
20260905164545 86 1 0.0 4.0 0.00 2.41 0.01 82 1015.1
20260905164326 87 304 1.0 4.0 0.00 2.41 0.01 82 1015.2
20260905163824 89 29 0.0 5.0 0.00 2.41 0.01 81 1015.2
20260905163320 90 328 0.0 5.0 0.00 2.41 0.01 80 1015.3
20260905163029 90 34 1.0 7.0 0.00 2.41 0.01 79 1015.3
20260905162818 91 344 0.0 7.0 0.00 2.41 0.01 79 1015.4
20260905162315 92 129 4.0 7.0 0.00 2.41 0.01 77 1015.3
20260905161815 92 140 1.0 8.0 0.00 2.41 0.01 78 1015.3
20260905161512 91 154 0.0 8.0 0.00 2.41 0.01 79 1015.3
20260905161333 91 108 1.0 8.0 0.00 2.41 0.01 78 1015.4
20260905160829 91 152 3.0 7.0 0.00 2.41 0.01 78 1015.4
20260905160326 91 133 2.0 5.0 0.00 2.41 0.01 77 1015.3
20260905160053 91 95 1.0 5.0 0.00 2.41 0.01 78 1015.3
20260905155823 92 174 2.0 5.0 0.00 2.41 0.01 79 1015.5
20260905155320 91 122 1.0 5.0 0.00 2.41 0.01 81 1015.6
20260905154836 91 146 0.0 5.0 0.00 2.41 0.01 82 1015.7
20260905154510 90 312 0.0 5.0 0.00 2.41 0.01 82 1015.6
20260905154314 90 308 0.0 5.0 0.00 2.41 0.01 81 1015.8
20260905153833 91 157 1.0 4.0 0.00 2.41 0.01 81 1015.8
20260905153333 90 214 1.0 7.0 0.00 2.41 0.01 82 1015.8
20260905153056 89 134 1.0 7.0 0.00 2.41 0.01 82 1015.8
20260905152833 90 129 3.0 7.0 0.00 2.41 0.01 81 1015.9
20260905152331 89 161 0.0 0.0 0.00 2.41 0.01 83 1015.9
20260905151829 89 161 0.0 0.0 0.00 2.41 0.01 82 1015.8
20260905151545 88 161 0.0 0.0 0.00 2.41 0.01 82 1015.7
20260905151329 89 161 0.0 0.0 0.00 2.41 0.01 82 1015.8
20260905150826 90 161 0.0 0.0 0.00 2.41 0.01 82 1015.8
20260905150323 90 136 0.0 1.0 0.00 2.41 0.01 82 1015.7
20260905150031 90 134 0.0 4.0 0.00 2.41 0.01 81 1015.6
20260905145841 90 134 0.0 4.0 0.00 2.41 0.01 81 1015.9
20260905145337 91 130 1.0 4.0 0.00 2.41 0.01 81 1015.8
20260905144834 90 148 1.0 6.0 0.00 2.41 0.01 81 1015.7
20260905144532 89 146 3.0 6.0 0.00 2.41 0.01 81 1015.6
20260905144333 90 151 3.0 6.0 0.00 2.41 0.01 81 1015.7
20260905143830 91 148 2.0 4.0 0.00 2.41 0.01 81 1015.6
20260905143343 91 122 0.0 4.0 0.00 2.41 0.01 81 1015.5
20260905143101 91 143 0.0 4.0 0.00 2.41 0.01 81 1015.4
20260905143003 91 113 1.0 4.0 0.00 2.41 0.01 81 1015.4
20260905142821 91 152 2.0 4.0 0.00 2.41 0.01 81 1015.5
20260905142337 90 159 0.0 3.0 0.00 2.41 0.01 82 1015.6
20260905141836 90 356 0.0 0.0 0.00 2.41 0.01 83 1015.5
20260905141504 89 143 0.0 0.0 0.00 2.41 0.01 83 1015.4
20260905141332 89 143 0.0 0.0 0.00 2.41 0.01 83 1015.5
20260905140830 88 144 0.0 1.0 0.00 2.41 0.01 83 1015.5
20260905140326 87 144 0.0 1.0 0.00 2.41 0.01 83 1015.7
20260905140051 87 144 0.0 1.0 0.00 2.41 0.01 83 1015.5
20260905135824 88 138 0.0 2.0 0.00 2.41 0.01 83 1015.6
20260905135322 88 124 0.0 3.0 0.00 2.41 0.01 83 1015.7
20260905134817 89 119 1.0 5.0 0.00 2.41 0.01 83 1015.6
20260905134516 89 133 1.0 5.0 0.00 2.41 0.01 83 1015.6
20260905134334 90 147 1.0 3.0 0.00 2.41 0.01 82 1015.7
20260905133853 90 144 1.0 3.0 0.00 2.41 0.01 83 1015.7
20260905133328 89 173 0.0 4.0 0.00 2.41 0.01 83 1015.7
20260905133040 88 112 1.0 4.0 0.00 2.41 0.01 83 1015.6
20260905132824 89 148 2.0 4.0 0.00 2.41 0.01 83 1015.6
20260905132341 89 158 0.0 3.0 0.00 2.41 0.01 84 1015.7
20260905131837 90 137 0.0 1.0 0.00 2.41 0.01 84 1015.6
20260905131603 89 133 0.0 1.0 0.00 2.41 0.01 85 1015.5
20260905131353 89 156 0.0 1.0 0.00 2.41 0.01 86 1015.8
20260905130830 88 140 0.0 1.0 0.00 2.41 0.01 89 1015.8
20260905130346 87 140 0.0 1.0 0.00 2.41 0.01 91 1015.8
20260905130057 86 159 0.0 1.0 0.00 2.41 0.01 92 1015.6
20260905125820 87 134 0.0 0.0 0.00 2.41 0.01 93 1015.8
20260905125316 86 134 0.0 0.0 0.00 2.41 0.01 94 1015.9
20260905124831 85 134 0.0 0.0 0.00 2.41 0.01 95 1015.9
20260905124536 83 134 0.0 0.0 0.00 2.41 0.01 94 1015.8
20260905124329 84 134 0.0 0.0 0.00 2.41 0.01 95 1015.9
20260905123844 83 134 0.0 0.0 0.00 2.41 0.01 95 1015.9
20260905123336 83 134 0.0 0.0 0.00 2.41 0.01 95 1015.9
20260905123032 82 134 0.0 0.0 0.00 2.41 0.01 95 1015.9
20260905122832 82 134 0.0 0.0 0.00 2.41 0.01 95 1016.0
20260905122329 82 134 0.0 0.0 0.00 2.41 0.01 95 1015.9
20260905121826 82 133 0.0 0.0 0.00 2.41 0.01 95 1015.9
20260905121525 81 134 0.0 0.0 0.00 2.41 0.01 95 1015.7
20260905121322 81 134 0.0 1.0 0.00 2.41 0.01 95 1015.8
20260905120838 80 134 0.0 1.0 0.00 2.41 0.01 95 1015.7
20260905120353 80 134 0.0 0.0 0.00 2.41 0.01 95 1015.8
20260905120048 79 134 0.0 0.0 0.00 2.41 0.01 95 1015.6
20260905115830 80 134 0.0 0.0 0.00 2.41 0.01 95 1015.7
20260905115325 79 134 0.0 0.0 0.00 2.41 0.01 95 1015.6
20260905114823 80 134 0.0 0.0 0.00 2.41 0.01 95 1015.5
20260905114535 79 133 0.0 0.0 0.00 2.41 0.01 95 1015.4
20260905114320 79 134 0.0 0.0 0.00 2.41 0.01 95 1015.5
20260905113817 79 134 0.0 0.0 0.00 2.41 0.01 95 1015.4
20260905113315 79 134 0.0 0.0 0.00 2.41 0.01 95 1015.3
20260905113019 79 134 0.0 0.0 0.00 2.41 0.01 95 1015.1
20260905112832 79 134 0.0 0.0 0.00 2.41 0.01 95 1015.3
20260905112329 79 134 0.0 0.0 0.00 2.41 0.01 95 1015.2
20260905111846 79 134 0.0 0.0 0.00 2.41 0.01 95 1015.0
20260905111544 78 134 0.0 0.0 0.00 2.41 0.01 95 1015.0
20260905111320 79 134 0.0 0.0 0.00 2.41 0.01 95 1015.1
20260905110818 79 134 0.0 0.0 0.00 2.41 0.01 95 1015.1
20260905110317 79 134 0.0 0.0 0.00 2.41 0.01 95 1015.1
20260905110026 78 134 0.0 0.0 0.00 2.41 0.01 95 1015.0
20260905105833 79 134 0.0 0.0 0.00 2.41 0.01 95 1015.0
20260905105351 79 134 0.0 0.0 0.00 2.41 0.01 95 1015.1
20260905104827 79 134 0.0 0.0 0.00 2.41 0.01 95 1015.1
20260905104601 79 134 0.0 0.0 0.00 2.41 0.01 95 1014.9
20260905104324 79 134 0.0 0.0 0.00 2.41 0.01 95 1015.0
20260905103821 79 134 0.0 0.0 0.00 2.41 0.01 95 1015.1
20260905103317 79 134 0.0 0.0 0.00 2.41 0.01 95 1015.1
20260905103037 79 134 0.0 0.0 0.00 2.41 0.01 95 1015.0
20260905102815 79 134 0.0 0.0 0.00 2.41 0.01 95 1015.0
20260905102333 79 134 0.0 0.0 0.00 2.41 0.01 95 1015.0
20260905101829 79 134 0.0 0.0 0.00 2.41 0.01 95 1015.1
20260905101551 79 134 0.0 0.0 0.00 2.41 0.01 95 1015.0
20260905101325 79 134 0.0 0.0 0.00 2.41 0.01 95 1015.0
20260905100822 79 134 0.0 0.0 0.00 2.41 0.01 95 1015.0
20260905100318 79 134 0.0 0.0 0.00 2.41 0.01 95 1014.9
20260905100037 79 134 0.0 0.0 0.00 2.41 0.01 95 1014.9
20260905095817 79 134 0.0 0.0 0.00 2.41 0.01 95 1014.8
20260905095314 79 134 0.0 0.0 0.00 2.41 0.01 95 1014.8
20260905094832 80 134 0.0 0.0 0.00 2.41 0.01 95 1014.7
20260905094522 79 134 0.0 0.0 0.00 2.41 0.01 95 1014.6
20260905094329 79 134 0.0 0.0 0.00 2.41 0.01 95 1014.8
20260905093824 79 134 0.0 0.0 0.00 2.41 0.01 95 1014.7
20260905093322 80 134 0.0 0.0 0.00 2.41 0.01 95 1014.6
20260905093011 79 134 0.0 0.0 0.00 2.41 0.01 95 1014.6
20260905092819 80 134 0.0 0.0 0.00 2.41 0.01 95 1014.7
20260905092317 80 134 0.0 0.0 0.00 2.41 0.01 95 1014.6
20260905091832 80 134 0.0 1.0 0.00 2.41 0.01 95 1014.6
20260905091531 79 134 0.0 1.0 0.00 2.41 0.01 95 1014.5
20260905091328 80 134 0.0 1.0 0.00 2.41 0.01 95 1014.6
20260905090826 80 134 0.0 0.0 0.00 2.41 0.01 95 1014.7
20260905090323 80 134 0.0 0.0 0.00 2.41 0.01 95 1014.6
20260905090020 79 134 0.0 0.0 0.00 2.41 0.01 95 1014.5
20260905085822 80 134 0.0 0.0 0.00 2.41 0.01 95 1014.6
20260905085321 80 134 0.0 0.0 0.00 2.41 0.01 95 1014.6
20260905084817 80 134 0.0 0.0 0.00 2.41 0.01 95 1014.6
20260905084515 79 134 0.0 0.0 0.00 2.41 0.01 95 1014.6
20260905084358 80 134 0.0 0.0 0.00 2.41 0.01 95 1014.7
20260905083834 80 134 0.0 0.0 0.00 2.41 0.01 95 1014.7
20260905083329 80 134 0.0 0.0 0.00 2.41 0.01 95 1014.7
20260905083008 79 134 0.0 0.0 0.00 2.41 0.01 95 1014.7
20260905082827 80 134 0.0 0.0 0.00 2.41 0.01 95 1014.8
20260905082324 80 134 0.0 0.0 0.00 2.41 0.01 95 1014.8
20260905081823 80 134 0.0 0.0 0.00 2.41 0.01 95 1014.8
20260905081537 79 134 0.0 0.0 0.00 2.41 0.01 95 1014.6
20260905081320 80 134 0.0 0.0 0.00 2.41 0.01 95 1014.7
20260905080817 80 134 0.0 0.0 0.00 2.41 0.01 95 1014.8
20260905080315 80 134 0.0 0.0 0.00 2.41 0.01 95 1014.7
20260905080031 79 133 0.0 0.0 0.00 2.41 0.01 95 1014.6
20260905075833 80 133 0.0 0.0 0.00 2.41 0.01 95 1014.7
20260905075351 80 134 0.0 0.0 0.00 2.41 0.01 95 1014.7
20260905074826 80 133 0.0 0.0 0.00 2.41 0.01 95 1014.7
20260905074540 79 134 0.0 0.0 0.00 2.41 0.01 95 1014.7
20260905074323 80 134 0.0 0.0 0.00 2.41 0.01 95 1014.8
20260905073821 80 133 0.0 0.0 0.00 2.41 0.01 95 1014.8
20260905073318 80 134 0.0 0.0 0.00 2.41 0.01 95 1014.7
20260905073006 79 134 0.0 0.0 0.00 2.41 0.01 95 1014.6
20260905072817 80 134 0.0 0.0 0.01 2.41 0.01 95 1014.7
20260905072314 80 134 0.0 0.0 0.01 2.41 0.01 95 1014.7
20260905071832 80 134 0.0 0.0 0.01 2.41 0.01 95 1014.7
20260905071552 79 134 0.0 0.0 0.01 2.41 0.01 94 1014.6
20260905071330 80 134 0.0 0.0 0.01 2.41 0.01 95 1014.8
20260905070848 80 134 0.0 0.0 0.01 2.41 0.01 95 1014.8
20260905070324 80 134 0.0 0.0 0.01 2.41 0.01 95 1014.8
20260905070028 80 134 0.0 0.0 0.01 2.41 0.01 95 1014.8
20260905065821 80 134 0.0 0.0 0.01 2.41 0.01 95 1014.9
20260905065318 80 134 0.0 0.0 0.01 2.41 0.01 95 1015.0
20260905064814 80 134 0.0 0.0 0.01 2.41 0.01 95 1015.1
20260905064558 80 134 0.0 0.0 0.01 2.41 0.01 95 1015.0
20260905064334 80 133 0.0 0.0 0.01 2.41 0.01 95 1015.1
20260905063851 80 134 0.0 0.0 0.01 2.41 0.01 95 1015.2
20260905063328 80 134 0.0 0.0 0.01 2.41 0.01 95 1015.2
20260905063018 80 134 0.0 0.0 0.00 2.40 0.01 95 1015.2
20260905062826 80 134 0.0 0.0 0.00 2.40 0.00 95 1015.4
20260905062322 80 134 0.0 0.0 0.00 2.40 0.00 94 1015.4
20260905061821 80 134 0.0 0.0 0.00 2.40 0.00 94 1015.5
20260905061504 79 134 0.0 0.0 0.00 2.40 0.00 94 1015.4
20260905061339 80 134 0.0 0.0 0.00 2.40 0.00 94 1015.5
20260905060834 80 134 0.0 0.0 0.00 2.40 0.00 94 1015.6
20260905060347 80 134 0.0 0.0 0.00 2.40 0.00 94 1015.6
20260905060100 79 134 0.0 0.0 0.00 2.40 0.00 94 1015.6
20260905060002 79 134 0.0 0.0 0.00 2.40 0.00 94 1015.6
20260905055824 80 134 0.0 0.0 0.00 2.40 0.00 94 1015.7
20260905055320 80 134 0.0 0.0 0.00 2.40 0.00 94 1015.8
20260905054818 80 134 0.0 0.0 0.00 2.40 0.00 94 1015.9
20260905054549 80 134 0.0 0.0 0.00 2.40 0.00 94 1015.7
20260905054337 80 134 0.0 0.0 0.00 2.40 0.00 94 1015.9
20260905053855 81 134 0.0 0.0 0.00 2.40 0.00 94 1015.9
20260905053329 81 134 0.0 0.0 0.00 2.40 0.00 94 1016.0
20260905053046 80 133 0.0 0.0 0.00 2.40 0.00 94 1015.9
20260905052825 81 134 0.0 0.0 0.00 2.40 0.00 94 1016.1
20260905052322 81 134 0.0 0.0 0.00 2.40 0.00 94 1016.0
20260905051820 81 134 0.0 0.0 0.00 2.40 0.00 94 1016.1
20260905051542 80 134 0.0 0.0 0.00 2.40 0.00 94 1016.0
20260905051318 81 134 0.0 0.0 0.00 2.40 0.00 94 1016.1
20260905050815 81 134 0.0 0.0 0.00 2.40 0.00 94 1016.1
20260905050331 81 134 0.0 0.0 0.00 2.40 0.00 94 1016.2